Regional Weather Roundup
Issued by NWS

Home | Current Version | Previous Version | Graphics & Text | Print | Product List | Glossary On
Versions: 1 2 3 4 5 6 7 8 9 10 11 12 13 14 15 16 17 18 19 20 21 22 23 24 25 26 27 28 29 30 31 32 33 34 35 36 37 38 39 40 41 42 43 44 45 46 47 48 49 50
000
ASUS45 KABQ 310501
RWRNM
WEATHER ROUNDUP FOR NEW MEXICO
NATIONAL WEATHER SERVICE ALBUQUERQUE NM
1000 PM MST FRI JAN 30 2015

NOTE: "FAIR" MEANS FEW OR NO CLOUDS BELOW 12,000 FEET AGL WITH NO
       SIGNIFICANT WEATHER OR OBSTRUCTIONS TO VISION.

      THIS PRODUCT IS RELEASED AS TWO VERSIONS.  ONE VERSION NEAR
      THE TOP OF THE HOUR CONTAINING PRELIMINARY DATA FROM ALBUQUERQUE
      AND OTHER STATIONS.  A FINAL VERSION WITH ADDITIONAL DATA IS
      ISSUED ABOUT 10 MINUTES AFTER THE HOUR.

NMZ501-503-504-510>518-310600-
NORTHWEST PLATEAU/NORTHCENTRAL MOUNTAINS

CITY           SKY/WX    TMP DP  RH WIND       PRES   REMARKS
FARMINGTON     LGT RAIN  34  33  96 E6        29.98S FOG     WCI  29
SANTA FE       CLOUDY    31  27  85 S10       30.05F WCI  22
TAOS           CLOUDY    28  27  93 CALM      30.05F

$$
NMZ402-403-502-505>509-310600-
WESTCENTRAL MOUNTAINS/SOUTHWEST MOUNTAINS

CITY           SKY/WX    TMP DP  RH WIND       PRES   REMARKS
GALLUP         LGT SNOW  33  31  92 NE5       29.96F FOG     WCI  29
SILVER CITY    LGT RAIN  39  39 100 CALM      30.02R

$$
NMZ407-409-411-412-310600-
SOUTHERN DESERTS

CITY           SKY/WX    TMP DP  RH WIND       PRES   REMARKS
DEMING         LGT RAIN  43  42  97 E13       30.00F FOG
HOLLOMAN AFB   LGT RAIN  43  43 100 S7        30.05S
ALAMOGORDO     LGT RAIN  41  41 100 CALM      30.07S
T OR C         CLOUDY    40  39  97 NW3       30.02F

$$
NMZ519>523-310600-
CENTRAL VALLEYS/CENTRAL HIGHLANDS

CITY           SKY/WX    TMP DP  RH WIND       PRES   REMARKS
ALBUQUERQUE    CLOUDY    37  31  78 NE8       30.05S WCI  31
DOUBLE EAGLE   CLOUDY    32  30  94 N7        30.04F WCI  25
MORIARTY ARPT  CLOUDY    30  28  92 SE6       30.09F WCI  24
CLINES CORNERS NOT AVBL
BELEN          CLOUDY    33  33 100 W5        30.05S WCI  29
SOCORRO        NOT AVBL

$$
NMZ524>526-539-540-310600-
SOUTHCENTRAL MOUNTAINS

CITY           SKY/WX    TMP DP  RH WIND       PRES   REMARKS
RUIDOSO        NOT AVBL

$$
NMZ527>531-310600-
NORTHEAST HIGHLANDS/NORTHEAST PLAINS

CITY           SKY/WX    TMP DP  RH WIND       PRES   REMARKS
LAS VEGAS      FOG       26  26 100 S9        30.08F VSB 1/4 WCI  17
RATON          LGT SNOW  29  28  96 S5        30.08F FOG     WCI  24
CLAYTON        LGT RAIN  33  31  92 S16       30.11F WCI  23

$$
NMZ532>537-310600-
EASTCENTRAL PLAINS

CITY           SKY/WX    TMP DP  RH WIND       PRES   REMARKS
TUCUMCARI      LGT RAIN  36  34  92 S3        30.16S
CANNON AFB     LGT RAIN  34  33  94 SE10      30.16F WCI  26
CLOVIS AIRPORT CLOUDY    34  30  86 S12       30.17F WCI  25

$$
NMZ028-029-538-310600-
SOUTHEAST PLAINS

CITY           SKY/WX    TMP DP  RH WIND       PRES   REMARKS
ROSWELL        LGT RAIN  38  35  89 CALM      30.15F
ARTESIA        DRIZZLE   37  37 100 CALM      30.17F
CARLSBAD       LGT RAIN  40  37  89 CALM      30.15F FOG
HOBBS          LGT RAIN  37  37 100 E8        30.16F WCI  31


$$



USA.gov is the U.S. government's official web portal to all federal, state and local government web resources and services.